Year,Month,Day,Hour,Minute,Value (Times are PST for barometer in hPa)
2006,07,07,00,00,1025.33
2006,07,07,00,01,1025.40
2006,07,07,00,02,1025.40
2006,07,07,00,03,1025.40
2006,07,07,00,04,1025.40
2006,07,07,00,05,1025.40
2006,07,07,00,06,1025.40
2006,07,07,00,07,1025.40
2006,07,07,00,08,1025.40
2006,07,07,00,09,1025.40
2006,07,07,00,10,1025.40
2006,07,07,00,11,1025.40
2006,07,07,00,12,1025.40
2006,07,07,00,13,1025.40
2006,07,07,00,14,1025.40
2006,07,07,00,15,1025.51
2006,07,07,00,16,1025.60
2006,07,07,00,17,1025.60
2006,07,07,00,18,1025.60
2006,07,07,00,19,1025.60
2006,07,07,00,20,1025.60
2006,07,07,00,21,1025.60
2006,07,07,00,22,1025.60
2006,07,07,00,23,1025.60
2006,07,07,00,24,1025.60
2006,07,07,00,25,1025.60
2006,07,07,00,26,1025.60
2006,07,07,00,27,1025.60
2006,07,07,00,28,1025.60
2006,07,07,00,29,1025.60
2006,07,07,00,30,1025.64
2006,07,07,00,31,1025.67
2006,07,07,00,32,1025.67
2006,07,07,00,33,1025.67
2006,07,07,00,34,1025.67
2006,07,07,00,35,1025.67
2006,07,07,00,36,1025.67
2006,07,07,00,37,1025.67
2006,07,07,00,38,1025.67
2006,07,07,00,39,1025.67
2006,07,07,00,40,1025.67
2006,07,07,00,41,1025.67
2006,07,07,00,42,1025.67
2006,07,07,00,43,1025.67
2006,07,07,00,44,1025.67
2006,07,07,00,45,1025.71
2006,07,07,00,46,1025.74
2006,07,07,00,47,1025.74
2006,07,07,00,48,1025.74
2006,07,07,00,49,1025.74
2006,07,07,00,50,1025.74
2006,07,07,00,51,1025.74
2006,07,07,00,52,1025.74
2006,07,07,00,53,1025.74
2006,07,07,00,54,1025.74
2006,07,07,00,55,1025.74
2006,07,07,00,56,1025.74
2006,07,07,00,57,1025.74
2006,07,07,00,58,1025.74
2006,07,07,00,59,1025.74
2006,07,07,01,00,1025.74
2006,07,07,01,01,1025.74
2006,07,07,01,02,1025.74
2006,07,07,01,03,1025.74
2006,07,07,01,04,1025.74
2006,07,07,01,05,1025.74
2006,07,07,01,06,1025.74
2006,07,07,01,07,1025.74
2006,07,07,01,08,1025.74
2006,07,07,01,09,1025.74
2006,07,07,01,10,1025.74
2006,07,07,01,11,1025.74
2006,07,07,01,12,1025.74
2006,07,07,01,13,1025.74
2006,07,07,01,14,1025.74
2006,07,07,01,15,1025.78
2006,07,07,01,16,1025.81
2006,07,07,01,17,1025.81
2006,07,07,01,18,1025.81
2006,07,07,01,19,1025.81
2006,07,07,01,20,1025.81
2006,07,07,01,21,1025.81
2006,07,07,01,22,1025.81
2006,07,07,01,23,1025.81
2006,07,07,01,24,1025.81
2006,07,07,01,25,1025.81
2006,07,07,01,26,1025.81
2006,07,07,01,27,1025.81
2006,07,07,01,28,1025.81
2006,07,07,01,29,1025.81
2006,07,07,01,30,1025.82
2006,07,07,01,31,1025.84
2006,07,07,01,32,1025.84
2006,07,07,01,33,1025.84
2006,07,07,01,34,1025.84
2006,07,07,01,35,1025.84
2006,07,07,01,36,1025.84
2006,07,07,01,37,1025.84
2006,07,07,01,38,1025.84
2006,07,07,01,39,1025.84
2006,07,07,01,40,1025.84
2006,07,07,01,41,1025.84
2006,07,07,01,42,1025.84
2006,07,07,01,43,1025.84
2006,07,07,01,44,1025.84
2006,07,07,01,45,1026.00
2006,07,07,01,46,1026.14
2006,07,07,01,47,1026.14
2006,07,07,01,48,1026.14
2006,07,07,01,49,1026.14
2006,07,07,01,50,1026.14
2006,07,07,01,51,1026.14
2006,07,07,01,52,1026.14
2006,07,07,01,53,1026.14
2006,07,07,01,54,1026.14
2006,07,07,01,55,1026.14
2006,07,07,01,56,1026.14
2006,07,07,01,57,1026.14
2006,07,07,01,58,1026.14
2006,07,07,01,59,1026.14
2006,07,07,02,00,1026.17
2006,07,07,02,01,1026.21
2006,07,07,02,02,1026.21
2006,07,07,02,03,1026.21
2006,07,07,02,04,1026.21
2006,07,07,02,05,1026.21
2006,07,07,02,06,1026.21
2006,07,07,02,07,1026.21
2006,07,07,02,08,1026.21
2006,07,07,02,09,1026.21
2006,07,07,02,10,1026.21
2006,07,07,02,11,1026.21
2006,07,07,02,12,1026.21
2006,07,07,02,13,1026.21
2006,07,07,02,14,1026.21
2006,07,07,02,15,1026.21
2006,07,07,02,16,1026.21
2006,07,07,02,17,1026.21
2006,07,07,02,18,1026.21
2006,07,07,02,19,1026.21
2006,07,07,02,20,1026.21
2006,07,07,02,21,1026.21
2006,07,07,02,22,1026.21
2006,07,07,02,23,1026.21
2006,07,07,02,24,1026.21
2006,07,07,02,25,1026.21
2006,07,07,02,26,1026.21
2006,07,07,02,27,1026.21
2006,07,07,02,28,1026.21
2006,07,07,02,29,1026.21
2006,07,07,02,30,1026.21
2006,07,07,02,31,1026.21
2006,07,07,02,32,1026.21
2006,07,07,02,33,1026.21
2006,07,07,02,34,1026.21
2006,07,07,02,35,1026.21
2006,07,07,02,36,1026.21
2006,07,07,02,37,1026.21
2006,07,07,02,38,1026.21
2006,07,07,02,39,1026.21
2006,07,07,02,40,1026.21
2006,07,07,02,41,1026.21
2006,07,07,02,42,1026.21
2006,07,07,02,43,1026.21
2006,07,07,02,44,1026.21
2006,07,07,02,45,1026.20
2006,07,07,02,46,1026.18
2006,07,07,02,47,1026.18
2006,07,07,02,48,1026.18
2006,07,07,02,49,1026.18
2006,07,07,02,50,1026.18
2006,07,07,02,51,1026.18
2006,07,07,02,52,1026.18
2006,07,07,02,53,1026.18
2006,07,07,02,54,1026.18
2006,07,07,02,55,1026.18
2006,07,07,02,56,1026.18
2006,07,07,02,57,1026.18
2006,07,07,02,58,1026.18
2006,07,07,02,59,1026.18
2006,07,07,03,00,1026.19
2006,07,07,03,01,1026.21
2006,07,07,03,02,1026.21
2006,07,07,03,03,1026.21
2006,07,07,03,04,1026.21
2006,07,07,03,05,1026.21
2006,07,07,03,06,1026.21
2006,07,07,03,07,1026.21
2006,07,07,03,08,1026.21
2006,07,07,03,09,1026.21
2006,07,07,03,10,1026.21
2006,07,07,03,11,1026.21
2006,07,07,03,12,1026.21
2006,07,07,03,13,1026.21
2006,07,07,03,14,1026.21
2006,07,07,03,15,1026.20
2006,07,07,03,16,1026.18
2006,07,07,03,17,1026.18
2006,07,07,03,18,1026.18
2006,07,07,03,19,1026.18
2006,07,07,03,20,1026.18
2006,07,07,03,21,1026.18
2006,07,07,03,22,1026.18
2006,07,07,03,23,1026.18
2006,07,07,03,24,1026.18
2006,07,07,03,25,1026.18
2006,07,07,03,26,1026.18
2006,07,07,03,27,1026.18
2006,07,07,03,28,1026.18
2006,07,07,03,29,1026.18
2006,07,07,03,30,1026.19
2006,07,07,03,31,1026.21
2006,07,07,03,32,1026.21
2006,07,07,03,33,1026.21
2006,07,07,03,34,1026.21
2006,07,07,03,35,1026.21
2006,07,07,03,36,1026.21
2006,07,07,03,37,1026.21
2006,07,07,03,38,1026.21
2006,07,07,03,39,1026.21
2006,07,07,03,40,1026.21
2006,07,07,03,41,1026.21
2006,07,07,03,42,1026.21
2006,07,07,03,43,1026.21
2006,07,07,03,44,1026.21
2006,07,07,03,45,1026.23
2006,07,07,03,46,1026.25
2006,07,07,03,47,1026.25
2006,07,07,03,48,1026.25
2006,07,07,03,49,1026.25
2006,07,07,03,50,1026.25
2006,07,07,03,51,1026.25
2006,07,07,03,52,1026.25
2006,07,07,03,53,1026.25
2006,07,07,03,54,1026.25
2006,07,07,03,55,1026.25
2006,07,07,03,56,1026.25
2006,07,07,03,57,1026.25
2006,07,07,03,58,1026.25
2006,07,07,03,59,1026.25
2006,07,07,04,00,1026.26
2006,07,07,04,01,1026.28
2006,07,07,04,02,1026.28
2006,07,07,04,03,1026.28
2006,07,07,04,04,1026.28
2006,07,07,04,05,1026.28
2006,07,07,04,06,1026.28
2006,07,07,04,07,1026.28
2006,07,07,04,08,1026.28
2006,07,07,04,09,1026.28
2006,07,07,04,10,1026.28
2006,07,07,04,11,1026.28
2006,07,07,04,12,1026.28
2006,07,07,04,13,1026.28
2006,07,07,04,14,1026.28
2006,07,07,04,15,1026.34
2006,07,07,04,16,1026.41
2006,07,07,04,17,1026.41
2006,07,07,04,18,1026.41
2006,07,07,04,19,1026.41
2006,07,07,04,20,1026.41
2006,07,07,04,21,1026.41
2006,07,07,04,22,1026.41
2006,07,07,04,23,1026.41
2006,07,07,04,24,1026.41
2006,07,07,04,25,1026.41
2006,07,07,04,26,1026.41
2006,07,07,04,27,1026.41
2006,07,07,04,28,1026.41
2006,07,07,04,29,1026.41
2006,07,07,04,30,1026.51
2006,07,07,04,31,1026.65
2006,07,07,04,32,1026.65
2006,07,07,04,33,1026.65
2006,07,07,04,34,1026.65
2006,07,07,04,35,1026.65
2006,07,07,04,36,1026.65
2006,07,07,04,37,1026.65
2006,07,07,04,38,1026.65
2006,07,07,04,39,1026.65
2006,07,07,04,40,1026.65
2006,07,07,04,41,1026.65
2006,07,07,04,42,1026.65
2006,07,07,04,43,1026.65
2006,07,07,04,44,1026.65
2006,07,07,04,45,1026.65
2006,07,07,04,46,1026.65
2006,07,07,04,47,1026.65
2006,07,07,04,48,1026.65
2006,07,07,04,49,1026.65
2006,07,07,04,50,1026.65
2006,07,07,04,51,1026.65
2006,07,07,04,52,1026.65
2006,07,07,04,53,1026.65
2006,07,07,04,54,1026.65
2006,07,07,04,55,1026.65
2006,07,07,04,56,1026.65
2006,07,07,04,57,1026.65
2006,07,07,04,58,1026.65
2006,07,07,04,59,1026.65
2006,07,07,05,00,1026.64
2006,07,07,05,01,1026.62
2006,07,07,05,02,1026.62
2006,07,07,05,03,1026.62
2006,07,07,05,04,1026.62
2006,07,07,05,05,1026.62
2006,07,07,05,06,1026.62
2006,07,07,05,07,1026.62
2006,07,07,05,08,1026.62
2006,07,07,05,09,1026.62
2006,07,07,05,10,1026.62
2006,07,07,05,11,1026.62
2006,07,07,05,12,1026.62
2006,07,07,05,13,1026.62
2006,07,07,05,14,1026.62
2006,07,07,05,15,1026.59
2006,07,07,05,16,1026.55
2006,07,07,05,17,1026.55
2006,07,07,05,18,1026.55
2006,07,07,05,19,1026.55
2006,07,07,05,20,1026.55
2006,07,07,05,21,1026.55
2006,07,07,05,22,1026.55
2006,07,07,05,23,1026.55
2006,07,07,05,24,1026.55
2006,07,07,05,25,1026.55
2006,07,07,05,26,1026.55
2006,07,07,05,27,1026.55
2006,07,07,05,28,1026.55
2006,07,07,05,29,1026.55
2006,07,07,05,30,1026.49
2006,07,07,05,31,1026.38
2006,07,07,05,32,1026.38
2006,07,07,05,33,1026.38
2006,07,07,05,34,1026.38
2006,07,07,05,35,1026.38
2006,07,07,05,36,1026.38
2006,07,07,05,37,1026.38
2006,07,07,05,38,1026.38
2006,07,07,05,39,1026.38
2006,07,07,05,40,1026.38
2006,07,07,05,41,1026.38
2006,07,07,05,42,1026.38
2006,07,07,05,43,1026.38
2006,07,07,05,44,1026.38
2006,07,07,05,45,1026.43
2006,07,07,05,46,1026.52
2006,07,07,05,47,1026.52
2006,07,07,05,48,1026.52
2006,07,07,05,49,1026.52
2006,07,07,05,50,1026.52
2006,07,07,05,51,1026.52
2006,07,07,05,52,1026.52
2006,07,07,05,53,1026.52
2006,07,07,05,54,1026.52
2006,07,07,05,55,1026.52
2006,07,07,05,56,1026.52
2006,07,07,05,57,1026.52
2006,07,07,05,58,1026.52
2006,07,07,05,59,1026.52
2006,07,07,06,00,1026.57
2006,07,07,06,01,1026.62
2006,07,07,06,02,1026.62
2006,07,07,06,03,1026.62
2006,07,07,06,04,1026.62
2006,07,07,06,05,1026.62
2006,07,07,06,06,1026.62
2006,07,07,06,07,1026.62
2006,07,07,06,08,1026.62
2006,07,07,06,09,1026.62
2006,07,07,06,10,1026.62
2006,07,07,06,11,1026.62
2006,07,07,06,12,1026.62
2006,07,07,06,13,1026.62
2006,07,07,06,14,1026.62
2006,07,07,06,15,1026.65
2006,07,07,06,16,1026.69
2006,07,07,06,17,1026.69
2006,07,07,06,18,1026.69
2006,07,07,06,19,1026.69
2006,07,07,06,20,1026.69
2006,07,07,06,21,1026.69
2006,07,07,06,22,1026.69
2006,07,07,06,23,1026.69
2006,07,07,06,24,1026.69
2006,07,07,06,25,1026.69
2006,07,07,06,26,1026.69
2006,07,07,06,27,1026.69
2006,07,07,06,28,1026.69
2006,07,07,06,29,1026.69
2006,07,07,06,30,1026.71
2006,07,07,06,31,1026.75
2006,07,07,06,32,1026.75
2006,07,07,06,33,1026.75
2006,07,07,06,34,1026.75
2006,07,07,06,35,1026.75
2006,07,07,06,36,1026.75
2006,07,07,06,37,1026.75
2006,07,07,06,38,1026.75
2006,07,07,06,39,1026.75
2006,07,07,06,40,1026.75
2006,07,07,06,41,1026.75
2006,07,07,06,42,1026.75
2006,07,07,06,43,1026.75
2006,07,07,06,44,1026.75
2006,07,07,06,45,1026.74
2006,07,07,06,46,1026.72
2006,07,07,06,47,1026.72
2006,07,07,06,48,1026.72
2006,07,07,06,49,1026.72
2006,07,07,06,50,1026.72
2006,07,07,06,51,1026.72
2006,07,07,06,52,1026.72
2006,07,07,06,53,1026.72
2006,07,07,06,54,1026.72
2006,07,07,06,55,1026.72
2006,07,07,06,56,1026.72
2006,07,07,06,57,1026.72
2006,07,07,06,58,1026.72
2006,07,07,06,59,1026.72
2006,07,07,07,00,1026.73
2006,07,07,07,01,1026.75
2006,07,07,07,02,1026.75
2006,07,07,07,03,1026.75
2006,07,07,07,04,1026.75
2006,07,07,07,05,1026.75
2006,07,07,07,06,1026.75
2006,07,07,07,07,1026.75
2006,07,07,07,08,1026.75
2006,07,07,07,09,1026.75
2006,07,07,07,10,1026.75
2006,07,07,07,11,1026.75
2006,07,07,07,12,1026.75
2006,07,07,07,13,1026.75
2006,07,07,07,14,1026.75
2006,07,07,07,15,1026.76
2006,07,07,07,16,1026.79
2006,07,07,07,17,1026.79
2006,07,07,07,18,1026.79
2006,07,07,07,19,1026.79
2006,07,07,07,20,1026.79
2006,07,07,07,21,1026.79
2006,07,07,07,22,1026.79
2006,07,07,07,23,1026.79
2006,07,07,07,24,1026.79
2006,07,07,07,25,1026.79
2006,07,07,07,26,1026.79
2006,07,07,07,27,1026.79
2006,07,07,07,28,1026.79
2006,07,07,07,29,1026.79
2006,07,07,07,30,1026.77
2006,07,07,07,31,1026.75
2006,07,07,07,32,1026.75
2006,07,07,07,33,1026.75
2006,07,07,07,34,1026.75
2006,07,07,07,35,1026.75
2006,07,07,07,36,1026.75
2006,07,07,07,37,1026.75
2006,07,07,07,38,1026.75
2006,07,07,07,39,1026.75
2006,07,07,07,40,1026.75
2006,07,07,07,41,1026.75
2006,07,07,07,42,1026.75
2006,07,07,07,43,1026.75
2006,07,07,07,44,1026.75
2006,07,07,07,45,1026.79
2006,07,07,07,46,1026.86
2006,07,07,07,47,1026.86
2006,07,07,07,48,1026.86
2006,07,07,07,49,1026.86
2006,07,07,07,50,1026.86
2006,07,07,07,51,1026.86
2006,07,07,07,52,1026.86
2006,07,07,07,53,1026.86
2006,07,07,07,54,1026.86
2006,07,07,07,55,1026.86
2006,07,07,07,56,1026.86
2006,07,07,07,57,1026.86
2006,07,07,07,58,1026.86
2006,07,07,07,59,1026.86
2006,07,07,08,00,1026.85
2006,07,07,08,01,1026.82
2006,07,07,08,02,1026.82
2006,07,07,08,03,1026.82
2006,07,07,08,04,1026.82
2006,07,07,08,05,1026.82
2006,07,07,08,06,1026.82
2006,07,07,08,07,1026.82
2006,07,07,08,08,1026.82
2006,07,07,08,09,1026.82
2006,07,07,08,10,1026.82
2006,07,07,08,11,1026.82
2006,07,07,08,12,1026.82
2006,07,07,08,13,1026.82
2006,07,07,08,14,1026.82
2006,07,07,08,15,1026.86
2006,07,07,08,16,1026.92
2006,07,07,08,17,1026.92
2006,07,07,08,18,1026.92
2006,07,07,08,19,1026.92
2006,07,07,08,20,1026.92
2006,07,07,08,21,1026.92
2006,07,07,08,22,1026.92
2006,07,07,08,23,1026.92
2006,07,07,08,24,1026.92
2006,07,07,08,25,1026.92
2006,07,07,08,26,1026.92
2006,07,07,08,27,1026.92
2006,07,07,08,28,1026.92
2006,07,07,08,29,1026.92
2006,07,07,08,30,1026.99
2006,07,07,08,31,1027.13
2006,07,07,08,32,1027.13
2006,07,07,08,33,1027.13
2006,07,07,08,34,1027.13
2006,07,07,08,35,1027.13
2006,07,07,08,36,1027.13
2006,07,07,08,37,1027.13
2006,07,07,08,38,1027.13
2006,07,07,08,39,1027.13
2006,07,07,08,40,1027.13
2006,07,07,08,41,1027.13
2006,07,07,08,42,1027.13
2006,07,07,08,43,1027.13
2006,07,07,08,44,1027.13
2006,07,07,08,45,1027.14
2006,07,07,08,46,1027.16
2006,07,07,08,47,1027.16
2006,07,07,08,48,1027.16
2006,07,07,08,49,1027.16
2006,07,07,08,50,1027.16
2006,07,07,08,51,1027.16
2006,07,07,08,52,1027.16
2006,07,07,08,53,1027.16
2006,07,07,08,54,1027.16
2006,07,07,08,55,1027.16
2006,07,07,08,56,1027.16
2006,07,07,08,57,1027.16
2006,07,07,08,58,1027.16
2006,07,07,08,59,1027.16
2006,07,07,09,00,1027.14
2006,07,07,09,01,1027.09
2006,07,07,09,02,1027.09
2006,07,07,09,03,1027.09
2006,07,07,09,04,1027.09
2006,07,07,09,05,1027.09
2006,07,07,09,06,1027.09
2006,07,07,09,07,1027.09
2006,07,07,09,08,1027.09
2006,07,07,09,09,1027.09
2006,07,07,09,10,1027.09
2006,07,07,09,11,1027.09
2006,07,07,09,12,1027.09
2006,07,07,09,13,1027.09
2006,07,07,09,14,1027.09
2006,07,07,09,15,1027.00
2006,07,07,09,16,1026.82
2006,07,07,09,17,1026.82
2006,07,07,09,18,1026.82
2006,07,07,09,19,1026.82
2006,07,07,09,20,1026.82
2006,07,07,09,21,1026.82
2006,07,07,09,22,1026.82
2006,07,07,09,23,1026.82
2006,07,07,09,24,1026.82
2006,07,07,09,25,1026.82
2006,07,07,09,26,1026.82
2006,07,07,09,27,1026.82
2006,07,07,09,28,1026.82
2006,07,07,09,29,1026.82
2006,07,07,09,30,1026.81
2006,07,07,09,31,1026.79
2006,07,07,09,32,1026.79
2006,07,07,09,33,1026.79
2006,07,07,09,34,1026.79
2006,07,07,09,35,1026.79
2006,07,07,09,36,1026.79
2006,07,07,09,37,1026.79
2006,07,07,09,38,1026.79
2006,07,07,09,39,1026.79
2006,07,07,09,40,1026.79
2006,07,07,09,41,1026.79
2006,07,07,09,42,1026.79
2006,07,07,09,43,1026.79
2006,07,07,09,44,1026.79
2006,07,07,09,45,1026.82
2006,07,07,09,46,1026.89
2006,07,07,09,47,1026.89
2006,07,07,09,48,1026.89
2006,07,07,09,49,1026.89
2006,07,07,09,50,1026.89
2006,07,07,09,51,1026.89
2006,07,07,09,52,1026.89
2006,07,07,09,53,1026.89
2006,07,07,09,54,1026.89
2006,07,07,09,55,1026.89
2006,07,07,09,56,1026.89
2006,07,07,09,57,1026.89
2006,07,07,09,58,1026.89
2006,07,07,09,59,1026.89
2006,07,07,10,00,1026.95
2006,07,07,10,01,1027.09
2006,07,07,10,02,1027.09
2006,07,07,10,03,1027.09
2006,07,07,10,04,1027.09
2006,07,07,10,05,1027.09
2006,07,07,10,06,1027.09
2006,07,07,10,07,1027.09
2006,07,07,10,08,1027.09
2006,07,07,10,09,1027.09
2006,07,07,10,10,1027.09
2006,07,07,10,11,1027.09
2006,07,07,10,12,1027.09
2006,07,07,10,13,1027.09
2006,07,07,10,14,1027.09
2006,07,07,10,15,1027.13
2006,07,07,10,16,1027.23
2006,07,07,10,17,1027.23
2006,07,07,10,18,1027.23
2006,07,07,10,19,1027.23
2006,07,07,10,20,1027.23
2006,07,07,10,21,1027.23
2006,07,07,10,22,1027.23
2006,07,07,10,23,1027.23
2006,07,07,10,24,1027.23
2006,07,07,10,25,1027.23
2006,07,07,10,26,1027.23
2006,07,07,10,27,1027.23
2006,07,07,10,28,1027.23
2006,07,07,10,29,1027.23
2006,07,07,10,30,1027.22
2006,07,07,10,31,1027.19
2006,07,07,10,32,1027.19
2006,07,07,10,33,1027.19
2006,07,07,10,34,1027.19
2006,07,07,10,35,1027.19
2006,07,07,10,36,1027.19
2006,07,07,10,37,1027.19
2006,07,07,10,38,1027.19
2006,07,07,10,39,1027.19
2006,07,07,10,40,1027.19
2006,07,07,10,41,1027.19
2006,07,07,10,42,1027.19
2006,07,07,10,43,1027.19
2006,07,07,10,44,1027.19
2006,07,07,10,45,1027.21
2006,07,07,10,46,1027.26
2006,07,07,10,47,1027.26
2006,07,07,10,48,1027.26
2006,07,07,10,49,1027.26
2006,07,07,10,50,1027.26
2006,07,07,10,51,1027.26
2006,07,07,10,52,1027.26
2006,07,07,10,53,1027.26
2006,07,07,10,54,1027.26
2006,07,07,10,55,1027.26
2006,07,07,10,56,1027.26
2006,07,07,10,57,1027.26
2006,07,07,10,58,1027.26
2006,07,07,10,59,1027.26
2006,07,07,11,00,1027.24
2006,07,07,11,01,1027.19
2006,07,07,11,02,1027.19
2006,07,07,11,03,1027.19
2006,07,07,11,04,1027.19
2006,07,07,11,05,1027.19
2006,07,07,11,06,1027.19
2006,07,07,11,07,1027.19
2006,07,07,11,08,1027.19
2006,07,07,11,09,1027.19
2006,07,07,11,10,1027.19
2006,07,07,11,11,1027.19
2006,07,07,11,12,1027.19
2006,07,07,11,13,1027.19
2006,07,07,11,14,1027.19
2006,07,07,11,15,1027.15
2006,07,07,11,16,1027.02
2006,07,07,11,17,1027.02
2006,07,07,11,18,1027.02
2006,07,07,11,19,1027.02
2006,07,07,11,20,1027.02
2006,07,07,11,21,1027.02
2006,07,07,11,22,1027.02
2006,07,07,11,23,1027.02
2006,07,07,11,24,1027.02
2006,07,07,11,25,1027.02
2006,07,07,11,26,1027.02
2006,07,07,11,27,1027.02
2006,07,07,11,28,1027.02
2006,07,07,11,29,1027.02
2006,07,07,11,30,1027.05
2006,07,07,11,31,1027.16
2006,07,07,11,32,1027.16
2006,07,07,11,33,1027.16
2006,07,07,11,34,1027.16
2006,07,07,11,35,1027.16
2006,07,07,11,36,1027.16
2006,07,07,11,37,1027.16
2006,07,07,11,38,1027.16
2006,07,07,11,39,1027.16
2006,07,07,11,40,1027.16
2006,07,07,11,41,1027.16
2006,07,07,11,42,1027.16
2006,07,07,11,43,1027.16
2006,07,07,11,44,1027.16
2006,07,07,11,45,1027.18
2006,07,07,11,46,1027.23
2006,07,07,11,47,1027.23
2006,07,07,11,48,1027.23
2006,07,07,11,49,1027.23
2006,07,07,11,50,1027.23
2006,07,07,11,51,1027.23
2006,07,07,11,52,1027.23
2006,07,07,11,53,1027.23
2006,07,07,11,54,1027.23
2006,07,07,11,55,1027.23
2006,07,07,11,56,1027.23
2006,07,07,11,57,1027.23
2006,07,07,11,58,1027.23
2006,07,07,11,59,1027.23
2006,07,07,12,00,1027.23
2006,07,07,12,01,1027.23
2006,07,07,12,02,1027.23
2006,07,07,12,03,1027.23
2006,07,07,12,04,1027.23
2006,07,07,12,05,1027.23
2006,07,07,12,06,1027.23
2006,07,07,12,07,1027.23
2006,07,07,12,08,1027.23
2006,07,07,12,09,1027.23
2006,07,07,12,10,1027.23
2006,07,07,12,11,1027.23
2006,07,07,12,12,1027.23
2006,07,07,12,13,1027.23
2006,07,07,12,14,1027.23
2006,07,07,12,15,1027.18
2006,07,07,12,16,1027.02
2006,07,07,12,17,1027.02
2006,07,07,12,18,1027.02
2006,07,07,12,19,1027.02
2006,07,07,12,20,1027.02
2006,07,07,12,21,1027.02
2006,07,07,12,22,1027.02
2006,07,07,12,23,1027.02
2006,07,07,12,24,1027.02
2006,07,07,12,25,1027.02
2006,07,07,12,26,1027.02
2006,07,07,12,27,1027.02
2006,07,07,12,28,1027.02
2006,07,07,12,29,1027.02
2006,07,07,12,30,1026.98
2006,07,07,12,31,1026.82
2006,07,07,12,32,1026.82
2006,07,07,12,33,1026.82
2006,07,07,12,34,1026.82
2006,07,07,12,35,1026.82
2006,07,07,12,36,1026.82
2006,07,07,12,37,1026.82
2006,07,07,12,38,1026.82
2006,07,07,12,39,1026.82
2006,07,07,12,40,1026.82
2006,07,07,12,41,1026.82
2006,07,07,12,42,1026.82
2006,07,07,12,43,1026.82
2006,07,07,12,44,1026.82
2006,07,07,12,45,1026.80
2006,07,07,12,46,1026.75
2006,07,07,12,47,1026.75
2006,07,07,12,48,1026.75
2006,07,07,12,49,1026.75
2006,07,07,12,50,1026.75
2006,07,07,12,51,1026.75
2006,07,07,12,52,1026.75
2006,07,07,12,53,1026.75
2006,07,07,12,54,1026.75
2006,07,07,12,55,1026.75
2006,07,07,12,56,1026.75
2006,07,07,12,57,1026.75
2006,07,07,12,58,1026.75
2006,07,07,12,59,1026.75
2006,07,07,13,00,1026.75
2006,07,07,13,01,1026.75
2006,07,07,13,02,1026.75
2006,07,07,13,03,1026.75
2006,07,07,13,04,1026.75
2006,07,07,13,05,1026.75
2006,07,07,13,06,1026.75
2006,07,07,13,07,1026.75
2006,07,07,13,08,1026.75
2006,07,07,13,09,1026.75
2006,07,07,13,10,1026.75
2006,07,07,13,11,1026.75
2006,07,07,13,12,1026.75
2006,07,07,13,13,1026.75
2006,07,07,13,14,1026.75
2006,07,07,13,15,1026.76
2006,07,07,13,16,1026.79
2006,07,07,13,17,1026.79
2006,07,07,13,18,1026.79
2006,07,07,13,19,1026.79
2006,07,07,13,20,1026.79
2006,07,07,13,21,1026.79
2006,07,07,13,22,1026.79
2006,07,07,13,23,1026.79
2006,07,07,13,24,1026.79
2006,07,07,13,25,1026.79
2006,07,07,13,26,1026.79
2006,07,07,13,27,1026.79
2006,07,07,13,28,1026.79
2006,07,07,13,29,1026.79
2006,07,07,13,30,1026.78
2006,07,07,13,31,1026.75
2006,07,07,13,32,1026.75
2006,07,07,13,33,1026.75
2006,07,07,13,34,1026.75
2006,07,07,13,35,1026.75
2006,07,07,13,36,1026.75
2006,07,07,13,37,1026.75
2006,07,07,13,38,1026.75
2006,07,07,13,39,1026.75
2006,07,07,13,40,1026.75
2006,07,07,13,41,1026.75
2006,07,07,13,42,1026.75
2006,07,07,13,43,1026.75
2006,07,07,13,44,1026.75
2006,07,07,13,45,1026.75
2006,07,07,13,46,1026.75
2006,07,07,13,47,1026.75
2006,07,07,13,48,1026.75
2006,07,07,13,49,1026.75
2006,07,07,13,50,1026.75
2006,07,07,13,51,1026.75
2006,07,07,13,52,1026.75
2006,07,07,13,53,1026.75
2006,07,07,13,54,1026.75
2006,07,07,13,55,1026.75
2006,07,07,13,56,1026.75
2006,07,07,13,57,1026.75
2006,07,07,13,58,1026.75
2006,07,07,13,59,1026.75
2006,07,07,14,00,1026.75
2006,07,07,14,01,1026.72
2006,07,07,14,02,1026.72
2006,07,07,14,03,1026.72
2006,07,07,14,04,1026.72
2006,07,07,14,05,1026.72
2006,07,07,14,06,1026.72
2006,07,07,14,07,1026.72
2006,07,07,14,08,1026.72
2006,07,07,14,09,1026.72
2006,07,07,14,10,1026.72
2006,07,07,14,11,1026.72
2006,07,07,14,12,1026.72
2006,07,07,14,13,1026.72
2006,07,07,14,14,1026.72
2006,07,07,14,15,1026.70
2006,07,07,14,16,1026.62
2006,07,07,14,17,1026.62
2006,07,07,14,18,1026.62
2006,07,07,14,19,1026.62
2006,07,07,14,20,1026.62
2006,07,07,14,21,1026.62
2006,07,07,14,22,1026.62
2006,07,07,14,23,1026.62
2006,07,07,14,24,1026.62
2006,07,07,14,25,1026.62
2006,07,07,14,26,1026.62
2006,07,07,14,27,1026.62
2006,07,07,14,28,1026.62
2006,07,07,14,29,1026.62
2006,07,07,14,30,1026.58
2006,07,07,14,31,1026.35
2006,07,07,14,32,1026.35
2006,07,07,14,33,1026.35
2006,07,07,14,34,1026.35
2006,07,07,14,35,1026.35
2006,07,07,14,36,1026.35
2006,07,07,14,37,1026.35
2006,07,07,14,38,1026.35
2006,07,07,14,39,1026.35
2006,07,07,14,40,1026.35
2006,07,07,14,41,1026.35
2006,07,07,14,42,1026.35
2006,07,07,14,43,1026.35
2006,07,07,14,44,1026.35
2006,07,07,14,45,1026.22
2006,07,07,14,46,1026.21
2006,07,07,14,47,1026.21
2006,07,07,14,48,1026.21
2006,07,07,14,49,1026.21
2006,07,07,14,50,1026.21
2006,07,07,14,51,1026.21
2006,07,07,14,52,1026.21
2006,07,07,14,53,1026.21
2006,07,07,14,54,1026.21
2006,07,07,14,55,1026.21
2006,07,07,14,56,1026.21
2006,07,07,14,57,1026.21
2006,07,07,14,58,1026.21
2006,07,07,14,59,1026.21
2006,07,07,15,00,1026.21
2006,07,07,15,01,1026.21
2006,07,07,15,02,1026.21
2006,07,07,15,03,1026.21
2006,07,07,15,04,1026.21
2006,07,07,15,05,1026.21
2006,07,07,15,06,1026.21
2006,07,07,15,07,1026.21
2006,07,07,15,08,1026.21
2006,07,07,15,09,1026.21
2006,07,07,15,10,1026.21
2006,07,07,15,11,1026.21
2006,07,07,15,12,1026.21
2006,07,07,15,13,1026.21
2006,07,07,15,14,1026.21
2006,07,07,15,15,1026.21
2006,07,07,15,16,1026.21
2006,07,07,15,17,1026.21
2006,07,07,15,18,1026.21
2006,07,07,15,19,1026.21
2006,07,07,15,20,1026.21
2006,07,07,15,21,1026.21
2006,07,07,15,22,1026.21
2006,07,07,15,23,1026.21
2006,07,07,15,24,1026.21
2006,07,07,15,25,1026.21
2006,07,07,15,26,1026.21
2006,07,07,15,27,1026.21
2006,07,07,15,28,1026.21
2006,07,07,15,29,1026.21
2006,07,07,15,30,1026.21
2006,07,07,15,31,1026.21
2006,07,07,15,32,1026.21
2006,07,07,15,33,1026.21
2006,07,07,15,34,1026.21
2006,07,07,15,35,1026.21
2006,07,07,15,36,1026.21
2006,07,07,15,37,1026.21
2006,07,07,15,38,1026.21
2006,07,07,15,39,1026.21
2006,07,07,15,40,1026.21
2006,07,07,15,41,1026.21
2006,07,07,15,42,1026.21
2006,07,07,15,43,1026.21
2006,07,07,15,44,1026.21
2006,07,07,15,45,1026.05
2006,07,07,15,46,1026.04
2006,07,07,15,47,1026.04
2006,07,07,15,48,1026.04
2006,07,07,15,49,1026.04
2006,07,07,15,50,1026.04
2006,07,07,15,51,1026.04
2006,07,07,15,52,1026.04
2006,07,07,15,53,1026.04
2006,07,07,15,54,1026.04
2006,07,07,15,55,1026.04
2006,07,07,15,56,1026.04